Regional Weather Roundup
Issued by NWS

Home | Current Version | Previous Version | Graphics & Text | Print | Product List | Glossary On
Versions: 1 2 3 4 5 6 7 8 9 10 11 12 13 14 15 16 17 18 19 20 21 22 23 24 25 26 27 28 29 30 31 32 33 34 35 36 37 38 39 40 41 42 43 44 45 46 47 48 49 50
000
ASUS45 KBOU 281107
RWRCO

WEATHER ROUNDUP FOR COLORADO
NATIONAL WEATHER SERVICE DENVER/BOULDER CO
500 AM MDT THU JUL 28 2016

NOTE: "FAIR" INDICATES FEW OR NO CLOUDS BELOW 12000 FEET WITH NO
SIGNIFICANT WEATHER AND/OR OBSTRUCTIONS TO VISIBILITY.

COZ001>005-013-030-031-281200-
...NORTHWEST COLORADO...

CITY           SKY/WX    TMP DP  RH WIND       PRES   REMARKS
CRAIG          FAIR      44  33  65 CALM      30.26R
HAYDEN         FAIR      52  27  37 SE10      30.27R
MEEKER         FAIR      50  34  54 VRB3      30.27S
MOUNT WERNER   NOT AVBL
STEAMBOAT SPGS FAIR      45  31  58 CALM      30.30R
WALDEN         FAIR      37  28  70 E7        30.38R
$$

COZ006>008-011-281200-
...WEST CENTRAL VALLEYS...

CITY           SKY/WX    TMP DP  RH WIND       PRES   REMARKS
GRAND JUNCTION FAIR      68  31  25 SE10      30.10S
MONTROSE       FAIR      63  37  38 SE13      30.22R
EAGLE          FAIR      50  30  46 CALM      30.32R
RIFLE          FAIR      58  33  39 SW5       30.21R
DELTA          NOT AVBL
NUCLA          NOT AVBL
$$

COZ017>023-064>068-281200-
...SOUTHWEST COLORADO...

CITY           SKY/WX    TMP DP  RH WIND       PRES   REMARKS
DURANGO        FAIR      63  38  39 NE5       30.31R
CORTEZ         FAIR      54  38  54 E3        30.21R
PAGOSA SPRINGS FAIR      57  36  46 CALM      30.41R
TELLURIDE      FAIR      55  33  42 SE6       30.51R
WOLF CREEK PAS FAIR      50  34  53 SW20      30.74F
$$

COZ009-010-012-014-032>034-037-058>063-281200-
...CENTRAL COLORADO...

CITY           SKY/WX    TMP DP  RH WIND       PRES   REMARKS
ASPEN          FAIR      50  33  52 S8        30.36S
BUENA VISTA    FAIR      51  30  45 CALM      30.40S
COPPER MTN     FAIR      59  14  17 W14G21    30.69S
BERTHOUD PASS  FAIR      48  34  57 NW16G24   30.70S
COTTONWOOD PAS FAIR      63  21  20 CALM      30.53F
GUNNISON       FAIR      45  32  61 CALM      30.44R
KREMMLING      FAIR      39  32  75 CALM      30.38R
LEADVILLE      FAIR      44  23  43 E5        30.53S
MONARCH PASS   FAIR      52  32  46 MISG      30.80F
SALIDA         FAIR      57  36  45 CALM      30.44S
SUNLIGHT       NOT AVBL
WILKERSON PASS FAIR      52  36  54 SW8       30.65S
$$

COZ069>075-281200-
...SAN LUIS VALLEY/SANGRE DE CRISTO MOUNTAINS...

CITY           SKY/WX    TMP DP  RH WIND       PRES   REMARKS
ALAMOSA        FAIR      55  42  61 SW7       30.36S
LA VETA PASS   FAIR      54  41  62 S12G17    30.56R
SAGUACHE       FAIR      54  34  47 N12       30.40S
$$

COZ035-036-038>040-281200-
...NORTHERN COLORADO FRONT RANGE...

CITY           SKY/WX    TMP DP  RH WIND       PRES   REMARKS
DENVER INTL AP FAIR      63  57  81 W5        30.16S
DMNS CITY PARK   N/A     62  60  90 E2        30.15S
AURORA         PTCLDY    62  56  81 S3        30.18S
FRONT RANGE AP NOT AVBL
ERIE MUNI ARPT FAIR      61  58  89 CALM      30.14S
BOULDER MUN AP FAIR      63  59  88 NE3       30.15S
CENTENNIAL     FAIR      62  54  74 S3        30.19F
BROOMFIELD     FAIR      63  57  82 CALM      30.17F
LONGMONT       NOT AVBL
$$

COZ041-046-047-076>085-087-088-281200-
...PIKES PEAK/PALMER DIVIDE AND SOUTHERN FOOTHILLS...

CITY           SKY/WX    TMP DP  RH WIND       PRES   REMARKS
COLO. SPRINGS  FAIR      60  52  74 CALM      30.25R
A. F. ACADEMY  FAIR      56  51  84 SE8       30.26R
SCHRIEVER AFB  NOT AVBL
ELLICOTT       FAIR     N/A N/A N/A E7        30.23R
FALCON         NOT AVBL
FORT CARSON    FAIR      62  53  72 W6        30.21S
LIMON          FAIR      57  55  93 SE8       30.22R
MONUMENT HILL  FAIR      54  50  87 S8        30.30S
TRINIDAD       NOT AVBL
$$

COZ042>045-048>051-090-091-281200-
...NORTHEAST COLORADO...

CITY           SKY/WX    TMP DP  RH WIND       PRES   REMARKS
GREELEY ARPT   FAIR      61  57  88 NE3       30.13F
AKRON          FAIR      61  56  83 SE14      30.15S
BURLINGTON     FAIR      62  55  77 E17       30.16F
WRAY           FAIR      64  52  63 S12G17    30.10S
STERLING       NOT AVBL
HOLYOKE        NOT AVBL
FORT MORGAN    NOT AVBL
$$

COZ086-089-092>099-281200-
...SOUTHEAST COLORADO...

CITY           SKY/WX    TMP DP  RH WIND       PRES   REMARKS
PUEBLO         FAIR      67  56  67 N7        30.13S
LA JUNTA       FAIR      66  60  81 SE7       30.12R
LAMAR          FAIR      68  59  73 SE15      30.08F
SPRINGFIELD      N/A     63  58  83 E14       30.17R
$$



USA.gov is the U.S. government's official web portal to all federal, state and local government web resources and services.